Location: Losili
(4.4086°N, 32.7049°E)
Time: 02:50:35
(UTC+00:00)

SL-4 R/B - Pass Details

Date: 18 September 2019
Orbit: 428 x 667 km, 51.6° (Epoch: 19 October)

Event Time Altitude Azimuth Distance (km) Brightness Sun altitude
Rises 16:38:01 0° 186° (S) 2,779 5.7 -13.5°
Reaches altitude 10° 16:41:13 10° 161° (SSE) 1,821 4.5 -14.3°
Enters shadow 16:42:42 14° 141° (SE) 1,563 3.9 -14.6°
